ROMMA est une association bénévole à but non lucratif. Votre soutien est indispensable : ADHERER à ROMMA ou FAIRE un DON

Crêts du Salève - (74, Haute-Savoie)

Salève (1270 m)   Longitude: 6° 10' 28'' E   Latitude: 46° 7' 42'' N Station romma n°73
 

Détail journalier du     <<     >>

Température Humidité Vent Dir Rafale Dir. rafale Ensol.
Heure (°C) (%) (km/h) (km/h) (min)
01:00 7.67620NNO23NNO0
02:00 7.67419NNO24NNO0
03:00 7.47416NNO19NNO0
04:00 7.47616NNO19NNO0
05:00 7.47718NNO21NNO0
06:00 7.77616NNO19NNO0
07:00 6.87817NNO19NNO0
08:00 6.88021NNO26NNO50
09:00 7.18021NNO27NNO60
10:00 8.87517N24N60
11:00 10.17213N27N60
12:00 10.1659NO19NNO60
13:00 9.16917NO24NNO60
14:00 9.66817NO23NO60
15:00 10.0729ONO18NO60
16:00 11.4688O16O60
17:00 11.2685O15O60
18:00 11.1655O13O30
19:00 10.75610O15O0
20:00 10.65916NO19NO0
21:00 10.46516NNO19NNO0
22:00 9.86815NNO19NNO0
23:00 9.47515NNO18NNO0
minuit 8.9786NNO18NNO0

Graphique du 18-03-2020

 

Serveur OMMA